{"data":{"norad_id":57976,"epoch":"2026-09-20T10:46:08.688288Z","epoch_age_seconds":142078,"freshness":"FRESH","line1":"1 57976U 23151N   26263.44871167  .00000056  00000+0  11552-4 0  9991","line2":"2 57976  43.0026 315.9301 0001246 283.4007  76.6706 15.27580075165554","mean_motion":15.27580075,"eccentricity":0.0001246,"inclination_deg":43.0026,"raan_deg":315.9301,"arg_perigee_deg":283.4007,"mean_anomaly_deg":76.6706,"bstar":1.1552e-5,"rev_number":16555,"period_min":94.266744085412,"perigee_km":482.1939677031,"apogee_km":483.90377522226,"semimajor_km":6861.1858714627,"source":"CELESTRAK","updated_at":"2026-09-21T09:00:33.751047Z"}}